| time (UTC) | temp F | wind direction | speed MPH | gust MPH | rain 1hr in | rain 24hr in | rain mn in | humidity % | barometer mb |
| 20260503171547 | 60 | 232 | 17.0 | 24.0 | 0.00 | 0.00 | 0.00 | 50 | 1018.7 |
| 20260503081550 | 37 | 144 | 3.0 | 4.0 | 0.00 | 0.00 | 0.00 | 91 | 1019.5 |
| 20260503071559 | 37 | 144 | 3.0 | 4.0 | 0.00 | 0.00 | 0.00 | 90 | 1019.4 |
| 20260503060106 | 38 | 144 | 1.0 | 4.0 | 0.00 | 0.00 | 0.00 | 88 | 1019.9 |
| 20260503054549 | 39 | 144 | 3.0 | 4.0 | 0.00 | 0.00 | 0.00 | 86 | 1019.9 |
| 20260503053047 | 39 | 144 | 4.0 | 5.0 | 0.00 | 0.00 | 0.00 | 85 | 1019.9 |
| 20260503051550 | 39 | 173 | 4.0 | 5.0 | 0.00 | 0.00 | 0.00 | 85 | 1020.0 |
| 20260503050047 | 40 | 170 | 2.0 | 3.0 | 0.00 | 0.00 | 0.00 | 85 | 1019.8 |
| 20260503044558 | 40 | 196 | 1.0 | 2.0 | 0.00 | 0.00 | 0.00 | 84 | 1020.0 |
| 20260503043055 | 41 | 196 | 1.0 | 3.0 | 0.00 | 0.00 | 0.00 | 86 | 1019.8 |
| 20260503041550 | 40 | 196 | 1.0 | 3.0 | 0.00 | 0.00 | 0.00 | 84 | 1019.8 |
| 20260503040049 | 41 | 196 | 1.0 | 3.0 | 0.00 | 0.00 | 0.00 | 81 | 1020.0 |
| 20260503034550 | 42 | 196 | 1.0 | 2.0 | 0.00 | 0.00 | 0.00 | 79 | 1020.0 |
| 20260503033056 | 42 | 196 | 1.0 | 2.0 | 0.00 | 0.00 | 0.00 | 79 | 1019.8 |
| 20260503031545 | 43 | 196 | 1.0 | 2.0 | 0.00 | 0.00 | 0.00 | 79 | 1019.9 |
| 20260503030051 | 43 | 196 | 1.0 | 2.0 | 0.00 | 0.00 | 0.00 | 77 | 1020.0 |
| 20260503024554 | 44 | 196 | 0.0 | 2.0 | 0.00 | 0.00 | 0.00 | 73 | 1019.9 |
| 20260503023058 | 44 | 196 | 1.0 | 3.0 | 0.00 | 0.00 | 0.00 | 73 | 1019.9 |
| 20260503021555 | 45 | 196 | 1.0 | 3.0 | 0.00 | 0.00 | 0.00 | 70 | 1019.9 |
| 20260503020045 | 46 | 194 | 1.0 | 3.0 | 0.00 | 0.00 | 0.00 | 69 | 1019.7 |
| 20260503014548 | 47 | 188 | 0.0 | 2.0 | 0.00 | 0.00 | 0.00 | 67 | 1019.5 |
| 20260503013049 | 48 | 336 | 0.0 | 2.0 | 0.00 | 0.00 | 0.00 | 66 | 1019.1 |
| 20260503011600 | 49 | 341 | 2.0 | 4.0 | 0.00 | 0.00 | 0.00 | 58 | 1019.0 |
| 20260503010054 | 50 | 340 | 3.0 | 5.0 | 0.00 | 0.00 | 0.00 | 56 | 1019.1 |
| 20260503004546 | 51 | 342 | 5.0 | 9.0 | 0.00 | 0.00 | 0.00 | 52 | 1018.9 |
| 20260503003058 | 52 | 351 | 7.0 | 9.0 | 0.00 | 0.00 | 0.00 | 47 | 1018.9 |
| 20260503001546 | 53 | 355 | 9.0 | 15.0 | 0.00 | 0.00 | 0.00 | 45 | 1018.9 |
| 20260503000103 | 54 | 348 | 12.0 | 17.0 | 0.00 | 0.00 | 0.00 | 43 | 1018.8 |
| 20260502234551 | 55 | 340 | 7.0 | 14.0 | 0.00 | 0.00 | 0.00 | 41 | 1018.7 |
| 20260502233050 | 55 | 19 | 6.0 | 13.0 | 0.00 | 0.00 | 0.00 | 43 | 1018.6 |
| 20260502231549 | 55 | 328 | 14.0 | 20.0 | 0.00 | 0.00 | 0.00 | 39 | 1018.7 |
| 20260502230052 | 56 | 360 | 6.0 | 13.0 | 0.00 | 0.00 | 0.00 | 39 | 1018.7 |
| 20260502224547 | 55 | 294 | 7.0 | 16.0 | 0.00 | 0.00 | 0.00 | 41 | 1018.7 |
| 20260502223048 | 55 | 315 | 12.0 | 20.0 | 0.00 | 0.00 | 0.00 | 40 | 1018.8 |
| 20260502221552 | 55 | 292 | 11.0 | 19.0 | 0.00 | 0.00 | 0.00 | 43 | 1018.7 |
| 20260502220051 | 55 | 331 | 12.0 | 17.0 | 0.00 | 0.00 | 0.00 | 41 | 1018.8 |
| 20260502214553 | 55 | 325 | 10.0 | 17.0 | 0.00 | 0.00 | 0.00 | 41 | 1018.6 |
| 20260502213050 | 56 | 340 | 12.0 | 22.0 | 0.00 | 0.00 | 0.00 | 41 | 1018.5 |
| 20260502211555 | 56 | 327 | 11.0 | 20.0 | 0.00 | 0.00 | 0.00 | 39 | 1018.5 |
| 20260502210047 | 58 | 308 | 13.0 | 19.0 | 0.00 | 0.00 | 0.00 | 39 | 1018.5 |
| 20260502204548 | 57 | 329 | 9.0 | 17.0 | 0.00 | 0.00 | 0.00 | 42 | 1018.5 |
| 20260502203047 | 55 | 332 | 12.0 | 19.0 | 0.00 | 0.00 | 0.00 | 43 | 1018.6 |
| 20260502201544 | 57 | 281 | 11.0 | 21.0 | 0.00 | 0.00 | 0.00 | 42 | 1018.7 |
| 20260502200054 | 56 | 336 | 8.0 | 17.0 | 0.00 | 0.00 | 0.00 | 41 | 1018.7 |
| 20260502194546 | 57 | 301 | 12.0 | 17.0 | 0.00 | 0.00 | 0.00 | 41 | 1018.7 |
| 20260502193050 | 56 | 296 | 8.0 | 19.0 | 0.00 | 0.00 | 0.00 | 43 | 1018.7 |
| 20260502191557 | 56 | 312 | 6.0 | 14.0 | 0.00 | 0.00 | 0.00 | 45 | 1018.9 |
| 20260502190047 | 56 | 323 | 7.0 | 23.0 | 0.00 | 0.00 | 0.00 | 45 | 1019.0 |
| 20260502184545 | 55 | 5 | 11.0 | 18.0 | 0.00 | 0.00 | 0.00 | 47 | 1019.1 |
| 20260502183049 | 54 | 310 | 11.0 | 16.0 | 0.00 | 0.00 | 0.00 | 52 | 1019.1 |
| 20260502181550 | 54 | 321 | 11.0 | 18.0 | 0.00 | 0.00 | 0.00 | 50 | 1019.2 |